Location: Dover
(48.8500°N, 53.9833°W)
Time: 06:47:03
(UTC+00:00)

Cosmos 2251 Rocket - Pass Details

Date: 14 November 2025
Orbit: 760 x 788 km, 74.0° (Epoch: 10 December)

Event Time Altitude Azimuth Distance (km) Brightness Sun altitude
Rises 21:25:36 0° 171° (S) 3,227 6.8 -14.6°
Reaches altitude 10° 21:28:11 10° 161° (SSE) 2,310 5.9 -15.0°
Maximum altitude 21:32:44 31° 101° (E) 1,343 4.2 -15.8°
Enters shadow 21:34:27 25° 68° (ENE) 1,526 4.5 -16.1°
